Tracking 29892 objects as of 21-Nov-2024
HD Live streaming from Space Station
objects crossing your sky now

THORAD AGENA D DEB


10-day predictions


NORAD ID: 4719
Int'l Code: 1970-025CD
Perigee: 826.9 km
Apogee: 1,004.8 km
Inclination: 100.0 °
Period: 103.2 minutes
Semi major axis: 7286 km
RCS: 0.6498 m2 (medium)
Launch date: April 8, 1970
Source: United States (US)
Launch site: AIR FORCE WESTERN TEST RANGE (AFWTR)

Note: This is SATELLITE DEBRIS
Your satellite tracking list
Your tracking list is empty




NASA's NSSDC Master Catalog

Two Line Element Set (TLE):
1  4719U 70025CD  24325.90705860  .00001183  00000-0  85184-3 0  9998
2  4719  99.9910 323.7748 0122017 293.2304  65.6045 13.95705062763022
Source of the keplerian elements: AFSPC